Regional Weather Roundup
Issued by NWS

Home | Current Version | Previous Version | Text Only | Print | Product List | Glossary Off
Versions: 1 2 3 4 5 6 7 8 9 10 11 12 13 14 15 16 17 18 19 20 21 22 23 24 25 26 27 28 29 30 31 32 33 34 35 36 37 38 39 40 41 42 43 44 45 46 47 48 49 50

296
ASUS43 KOAX 291410
RWRNE

WEATHER ROUNDUP FOR NEBRASKA
NATIONAL WEATHER SERVICE OMAHA NE
900 AM CDT MON AUG 29 2016

NOTES: SATELLITE DATA IS BEING USED TO AUGMENT CLOUD COVER ABOVE
       12000 FEET.
       "FAIR" INDICATES FEW OR NO CLOUDS BELOW 12,000 FEET WITH NO
       SIGNIFICANT WEATHER AND/OR OBSTRUCTIONS TO VISIBILITY.

  * THESE STATIONS DO NOT REPORT WEATHER SUCH AS RAIN...SNOW OR FOG.

NEZ001>004-019>022-054>056-291500-
NEBRASKA PANHANDLE

CITY           SKY/WX    TMP DP  RH WIND       PRES   REMARKS
SCOTTSBLUFF    SUNNY     63  52  67 N3        30.23R
ALLIANCE       SUNNY     57  53  86 CALM      30.22R
CHADRON        SUNNY     62  53  72 CALM      30.22R
KIMBALL        SUNNY     62  52  68 W5        30.28R
SIDNEY         SUNNY     64  51  62 W12       30.25S
$$

NEZ057>060-069>072-079>082-291500-
SOUTHWEST NEBRASKA

CITY           SKY/WX    TMP DP  RH WIND       PRES   REMARKS
NORTH PLATTE   CLOUDY    66  61  84 W5        30.19S
IMPERIAL       MOSUNNY   64  62  93 SE9       30.22S
LEXINGTON      CLOUDY    69  65  87 S7        30.19R
MCCOOK         CLOUDY    68  66  93 SW10      30.19S
OGALLALA       SUNNY     66  63  89 CALM      30.22R
$$

NEZ005>010-023>029-035>040-094-291500-
NORTH CENTRAL NEBRASKA

CITY           SKY/WX    TMP DP  RH WIND       PRES   REMARKS
VALENTINE      SUNNY     70  61  73 SW9       30.18R
AINSWORTH      SUNNY     70  65  83 SW9       30.17S
BROKEN BOW     CLOUDY    67  65  93 E3        30.19R
O`NEILL        CLOUDY    68  64  88 S6        30.17S
ORD            CLOUDY    68  61  78 CALM      30.18R
THEDFORD       SUNNY     70  63  79 SW9       30.20S
$$

NEZ041-046>049-061>064-073>077-083>087-291500-
SOUTH CENTRAL NEBRASKA

CITY           SKY/WX    TMP DP  RH WIND       PRES   REMARKS
GRAND ISLAND   PTSUNNY   68  64  87 SE9       30.20S
AURORA         CLOUDY    67  67 100 E3        30.20S
HASTINGS       CLOUDY    67  64  90 E6        30.20F
HEBRON         CLOUDY    69  67  92 E5        30.20R
HOLDREGE       CLOUDY    69  64  85 CALM      30.20R
KEARNEY *      PTSUNNY   70  64  83 S6        30.19R
YORK           CLOUDY    68  66  94 CALM      30.20R
$$

NEZ011>018-030>034-042>045-291500-
NORTHEAST NEBRASKA

CITY           SKY/WX    TMP DP  RH WIND       PRES   REMARKS
NORFOLK        PTSUNNY   69  65  86 S5        30.18R
ALBION         CLOUDY    68  64  86 S3        30.19S
BLAIR          CLOUDY    73  69  88 SE7       30.19S
FREMONT        CLOUDY    72  69  90 S6        30.19R
TEKAMAH        CLOUDY    70  67  90 SE6       30.18R
WAYNE          CLOUDY    69  68  96 S8        30.18R
$$

NEZ050>053-065>068-078-088>093-291500-
SOUTHEAST NEBRASKA

CITY           SKY/WX    TMP DP  RH WIND       PRES   REMARKS
LINCOLN        MOSUNNY   75  69  81 SE3       30.19R
OMAHA EPPLEY   CLOUDY    73  67  81 SE8       30.19R
BEATRICE       MOSUNNY   72  70  93 E6        30.19S
FALLS CITY     PTSUNNY   73  70  90 E3        30.17S
NEBRASKA CITY  CLOUDY    71  71 100 SE3       30.19S
PLATTSMOUTH    MOSUNNY   71  69  96 E3        30.20R
$$

NEZ044-045-051>053-067-291500-
OMAHA AREA

CITY           SKY/WX    TMP DP  RH WIND       PRES   REMARKS
OMAHA EPPLEY   CLOUDY    73  67  81 SE8       30.19R
BLAIR          CLOUDY    73  69  88 SE7       30.19S
FREMONT        CLOUDY    72  69  90 S6        30.19R
MILLARD        CLOUDY    73  69  88 SE5       30.19R
OFFUTT AFB     PTSUNNY   74  70  85 E6        30.19R
PLATTSMOUTH    MOSUNNY   71  69  96 E3        30.20R
WAHOO          FAIR      71  68  92 SE8       30.19S
$$




USA.gov is the U.S. government's official web portal to all federal, state and local government web resources and services.